datetime,side inflow
1980-10-01,-159.0
1980-10-02,-245.0
1980-10-03,-296.0
1980-10-04,-323.0
1980-10-05,-289.0
1980-10-06,-203.0
1980-10-07,-287.0
1980-10-08,4.0
1980-10-09,61.0
1980-10-10,-251.0
1980-10-11,-512.0
1980-10-12,-376.0
1980-10-13,364.0
1980-10-14,106.0
1980-10-15,76.0
1980-10-16,-48.0
1980-10-17,-244.0
1980-10-18,49.0
1980-10-19,405.0
1980-10-20,30.0
1980-10-21,130.0
1980-10-22,464.0
1980-10-23,-152.0
1980-10-24,-38.0
1980-10-25,-88.0
1980-10-26,-277.0
1980-10-27,-247.0
1980-10-28,-77.0
1980-10-29,-318.0
1980-10-30,460.0
1980-10-31,413.0
1980-11-01,341.0
1980-11-02,302.0
1980-11-03,50.0
1980-11-04,135.0
1980-11-05,439.0
1980-11-06,328.0
1980-11-07,497.0
1980-11-08,444.0
1980-11-09,321.0
1980-11-10,262.0
1980-11-11,238.0
1980-11-12,245.0
1980-11-13,100.0
1980-11-14,438.0
1980-11-15,256.0
1980-11-16,233.0
1980-11-17,391.0
1980-11-18,338.0
1980-11-19,368.0
1980-11-20,408.0
1980-11-21,350.0
1980-11-22,304.0
1980-11-23,322.0
1980-11-24,413.0
1980-11-25,388.0
1980-11-26,384.0
1980-11-27,307.0
1980-11-28,383.0
1980-11-29,336.0
1980-11-30,340.0
1980-12-01,341.0
1980-12-02,307.0
1980-12-03,376.0
1980-12-04,364.0
1980-12-05,352.0
1980-12-06,432.0
1980-12-07,445.0
1980-12-08,419.0
1980-12-09,343.0
1980-12-10,329.0
1980-12-11,241.0
1980-12-12,253.0
1980-12-13,336.0
1980-12-14,307.0
1980-12-15,324.0
1980-12-16,279.0
1980-12-17,322.0
1980-12-18,341.0
1980-12-19,358.0
1980-12-20,278.0
1980-12-21,341.0
1980-12-22,274.0
1980-12-23,383.0
1980-12-24,358.0
1980-12-25,299.0
1980-12-26,354.0
1980-12-27,241.0
1980-12-28,265.0
1980-12-29,305.0
1980-12-30,278.0
1980-12-31,242.0
1981-01-01,275.0
1981-01-02,298.0
1981-01-03,273.0
1981-01-04,273.0
1981-01-05,281.0
1981-01-06,261.0
1981-01-07,257.0
1981-01-08,225.0
1981-01-09,236.0
1981-01-10,248.0
1981-01-11,241.0
1981-01-12,260.0
1981-01-13,218.0
1981-01-14,245.0
1981-01-15,268.0
1981-01-16,284.0
1981-01-17,252.0
1981-01-18,254.0
1981-01-19,239.0
1981-01-20,222.0
1981-01-21,251.0
1981-01-22,253.0
1981-01-23,247.0
1981-01-24,259.0
1981-01-25,237.0
1981-01-26,219.0
1981-01-27,208.0
1981-01-28,257.0
1981-01-29,-291.0
1981-01-30,-510.0
1981-01-31,-410.0
1981-02-01,-437.0
1981-02-02,-416.0
1981-02-03,-487.0
1981-02-04,-241.0
1981-02-05,-178.0
1981-02-06,-400.0
1981-02-07,-243.0
1981-02-08,-357.0
1981-02-09,-110.0
1981-02-10,148.0
1981-02-11,43.0
1981-02-12,98.0
1981-02-13,99.0
1981-02-14,106.0
1981-02-15,120.0
1981-02-16,98.0
1981-02-17,84.0
1981-02-18,77.0
1981-02-19,73.0
1981-02-20,95.0
1981-02-21,130.0
1981-02-22,93.0
1981-02-23,89.0
1981-02-24,96.0
1981-02-25,120.0
1981-02-26,118.0
1981-02-27,177.0
1981-02-28,139.0
1981-03-01,125.0
1981-03-02,141.0
1981-03-03,144.0
1981-03-04,139.0
1981-03-05,130.0
1981-03-06,124.0
1981-03-07,108.0
1981-03-08,107.0
1981-03-09,116.0
1981-03-10,88.0
1981-03-11,92.0
1981-03-12,110.0
1981-03-13,104.0
1981-03-14,87.0
1981-03-15,151.0
1981-03-16,181.0
1981-03-17,162.0
1981-03-18,161.0
1981-03-19,162.0
1981-03-20,238.0
1981-03-21,247.0
1981-03-22,221.0
1981-03-23,187.0
1981-03-24,228.0
1981-03-25,249.0
1981-03-26,218.0
1981-03-27,323.0
1981-03-28,381.0
1981-03-29,357.0
1981-03-30,282.0
1981-03-31,362.0
1981-04-01,344.0
1981-04-02,285.0
1981-04-03,220.0
1981-04-04,330.0
1981-04-05,296.0
1981-04-06,283.0
1981-04-07,248.0
1981-04-08,235.0
1981-04-09,347.0
1981-04-10,297.0
1981-04-11,361.0
1981-04-12,328.0
1981-04-13,395.0
1981-04-14,307.0
1981-04-15,395.0
1981-04-16,592.0
1981-04-17,705.0
1981-04-18,692.0
1981-04-19,792.0
1981-04-20,1008.0
1981-04-21,641.0
1981-04-22,573.0
1981-04-23,507.0
1981-04-24,467.0
1981-04-25,539.0
1981-04-26,610.0
1981-04-27,621.0
1981-04-28,534.0
1981-04-29,483.0
1981-04-30,577.0
1981-05-01,479.0
1981-05-02,534.0
1981-05-03,1181.0
1981-05-04,1495.0
1981-05-05,553.0
1981-05-06,504.0
1981-05-07,382.0
1981-05-08,309.0
1981-05-09,321.0
1981-05-10,234.0
1981-05-11,184.0
1981-05-12,127.0
1981-05-13,128.0
1981-05-14,106.0
1981-05-15,46.0
1981-05-16,66.0
1981-05-17,130.0
1981-05-18,169.0
1981-05-19,96.0
1981-05-20,48.0
1981-05-21,110.0
1981-05-22,191.0
1981-05-23,146.0
1981-05-24,84.0
1981-05-25,123.0
1981-05-26,124.0
1981-05-27,161.0
1981-05-28,250.0
1981-05-29,515.0
1981-05-30,433.0
1981-05-31,480.0
1981-06-01,628.0
1981-06-02,398.0
1981-06-03,516.0
1981-06-04,472.0
1981-06-05,181.0
1981-06-06,391.0
1981-06-07,401.0
1981-06-08,290.0
1981-06-09,74.0
1981-06-10,16.0
1981-06-11,43.0
1981-06-12,-43.0
1981-06-13,17.0
1981-06-14,-11.0
1981-06-15,55.0
1981-06-16,39.0
1981-06-17,14.0
1981-06-18,-59.0
1981-06-19,-81.0
1981-06-20,-82.0
1981-06-21,-97.0
1981-06-22,-86.0
1981-06-23,-101.0
1981-06-24,-98.0
1981-06-25,-118.0
1981-06-26,-131.0
1981-06-27,-84.0
1981-06-28,-48.0
1981-06-29,1.0
1981-06-30,10.0
1981-07-01,13.0
1981-07-02,50.0
1981-07-03,82.0
1981-07-04,88.0
1981-07-05,94.0
1981-07-06,84.0
1981-07-07,-30.0
1981-07-08,-77.0
1981-07-09,-112.0
1981-07-10,-87.0
1981-07-11,63.0
1981-07-12,205.0
1981-07-13,342.0
1981-07-14,264.0
1981-07-15,192.0
1981-07-16,331.0
1981-07-17,600.0
1981-07-18,682.0
1981-07-19,118.0
1981-07-20,253.0
1981-07-21,188.0
1981-07-22,136.0
1981-07-23,120.0
1981-07-24,132.0
1981-07-25,182.0
1981-07-26,325.0
1981-07-27,411.0
1981-07-28,265.0
1981-07-29,164.0
1981-07-30,51.0
1981-07-31,38.0
1981-08-01,40.0
1981-08-02,44.0
1981-08-03,16.0
1981-08-04,-32.0
1981-08-05,-78.0
1981-08-06,-87.0
1981-08-07,-78.0
1981-08-08,-75.0
1981-08-09,-41.0
1981-08-10,226.0
1981-08-11,-17.0
1981-08-12,373.0
1981-08-13,273.0
1981-08-14,312.0
1981-08-15,284.0
1981-08-16,436.0
1981-08-17,416.0
1981-08-18,299.0
1981-08-19,154.0
1981-08-20,95.0
1981-08-21,53.0
1981-08-22,65.0
1981-08-23,128.0
1981-08-24,122.0
1981-08-25,89.0
1981-08-26,61.0
1981-08-27,72.0
1981-08-28,94.0
1981-08-29,139.0
1981-08-30,281.0
1981-08-31,520.0
1981-09-01,539.0
1981-09-02,337.0
1981-09-03,291.0
1981-09-04,344.0
1981-09-05,392.0
1981-09-06,472.0
1981-09-07,442.0
1981-09-08,469.0
1981-09-09,533.0
1981-09-10,538.0
1981-09-11,541.0
1981-09-12,699.0
1981-09-13,687.0
1981-09-14,609.0
1981-09-15,579.0
1981-09-16,490.0
1981-09-17,454.0
1981-09-18,448.0
1981-09-19,429.0
1981-09-20,411.0
1981-09-21,384.0
1981-09-22,337.0
1981-09-23,301.0
1981-09-24,330.0
1981-09-25,373.0
1981-09-26,328.0
1981-09-27,277.0
1981-09-28,292.0
1981-09-29,276.0
1981-09-30,269.0
1981-10-01,241.0
1981-10-02,276.0
1981-10-03,489.0
1981-10-04,644.0
1981-10-05,1597.0
1981-10-06,848.0
1981-10-07,669.0
1981-10-08,634.0
1981-10-09,633.0
1981-10-10,612.0
1981-10-11,610.0
1981-10-12,679.0
1981-10-13,724.0
1981-10-14,673.0
1981-10-15,668.0
1981-10-16,1324.0
1981-10-17,730.0
1981-10-18,625.0
1981-10-19,624.0
1981-10-20,635.0
1981-10-21,597.0
1981-10-22,559.0
1981-10-23,549.0
1981-10-24,541.0
1981-10-25,537.0
1981-10-26,553.0
1981-10-27,513.0
1981-10-28,468.0
1981-10-29,500.0
1981-10-30,573.0
1981-10-31,540.0
1981-11-01,444.0
1981-11-02,448.0
1981-11-03,593.0
1981-11-04,483.0
1981-11-05,390.0
1981-11-06,487.0
1981-11-07,479.0
1981-11-08,518.0
1981-11-09,464.0
1981-11-10,492.0
1981-11-11,417.0
1981-11-12,307.0
1981-11-13,306.0
1981-11-14,332.0
1981-11-15,339.0
1981-11-16,320.0
1981-11-17,225.0
1981-11-18,304.0
1981-11-19,288.0
1981-11-20,273.0
1981-11-21,297.0
1981-11-22,313.0
1981-11-23,317.0
1981-11-24,299.0
1981-11-25,291.0
1981-11-26,305.0
1981-11-27,322.0
1981-11-28,301.0
1981-11-29,315.0
1981-11-30,354.0
1981-12-01,295.0
1981-12-02,267.0
1981-12-03,264.0
1981-12-04,289.0
1981-12-05,279.0
1981-12-06,280.0
1981-12-07,272.0
1981-12-08,276.0
1981-12-09,279.0
1981-12-10,267.0
1981-12-11,244.0
1981-12-12,257.0
1981-12-13,298.0
1981-12-14,287.0
1981-12-15,251.0
1981-12-16,275.0
1981-12-17,268.0
1981-12-18,230.0
1981-12-19,232.0
1981-12-20,271.0
1981-12-21,329.0
1981-12-22,324.0
1981-12-23,265.0
1981-12-24,187.0
1981-12-25,247.0
1981-12-26,264.0
1981-12-27,305.0
1981-12-28,302.0
1981-12-29,296.0
1981-12-30,289.0
1981-12-31,310.0
1982-01-01,297.0
1982-01-02,295.0
1982-01-03,228.0
1982-01-04,179.0
1982-01-05,294.0
1982-01-06,255.0
1982-01-07,184.0
1982-01-08,57.0
1982-01-09,361.0
1982-01-10,418.0
1982-01-11,571.0
1982-01-12,493.0
1982-01-13,530.0
1982-01-14,523.0
1982-01-15,451.0
1982-01-16,495.0
1982-01-17,492.0
1982-01-18,523.0
1982-01-19,500.0
1982-01-20,370.0
1982-01-21,367.0
1982-01-22,245.0
1982-01-23,209.0
1982-01-24,254.0
1982-01-25,273.0
1982-01-26,247.0
1982-01-27,292.0
1982-01-28,231.0
1982-01-29,259.0
1982-01-30,288.0
1982-01-31,227.0
1982-02-01,227.0
1982-02-02,270.0
1982-02-03,83.0
1982-02-04,135.0
1982-02-05,192.0
1982-02-06,130.0
1982-02-07,187.0
1982-02-08,209.0
1982-02-09,275.0
1982-02-10,260.0
1982-02-11,230.0
1982-02-12,213.0
1982-02-13,173.0
1982-02-14,218.0
1982-02-15,223.0
1982-02-16,234.0
1982-02-17,257.0
1982-02-18,313.0
1982-02-19,250.0
1982-02-20,250.0
1982-02-21,238.0
1982-02-22,273.0
1982-02-23,269.0
1982-02-24,319.0
1982-02-25,345.0
1982-02-26,334.0
1982-02-27,274.0
1982-02-28,276.0
1982-03-01,288.0
1982-03-02,331.0
1982-03-03,445.0
1982-03-04,469.0
1982-03-05,349.0
1982-03-06,242.0
1982-03-07,189.0
1982-03-08,214.0
1982-03-09,257.0
1982-03-10,224.0
1982-03-11,245.0
1982-03-12,393.0
1982-03-13,606.0
1982-03-14,492.0
1982-03-15,456.0
1982-03-16,437.0
1982-03-17,326.0
1982-03-18,313.0
1982-03-19,310.0
1982-03-20,304.0
1982-03-21,307.0
1982-03-22,301.0
1982-03-23,229.0
1982-03-24,360.0
1982-03-25,223.0
1982-03-26,295.0
1982-03-27,260.0
1982-03-28,233.0
1982-03-29,258.0
1982-03-30,395.0
1982-03-31,281.0
1982-04-01,353.0
1982-04-02,430.0
1982-04-03,366.0
1982-04-04,340.0
1982-04-05,361.0
1982-04-06,345.0
1982-04-07,276.0
1982-04-08,257.0
1982-04-09,216.0
1982-04-10,251.0
1982-04-11,197.0
1982-04-12,447.0
1982-04-13,1506.0
1982-04-14,1503.0
1982-04-15,1786.0
1982-04-16,1817.0
1982-04-17,1577.0
1982-04-18,1563.0
1982-04-19,1835.0
1982-04-20,1446.0
1982-04-21,1029.0
1982-04-22,812.0
1982-04-23,942.0
1982-04-24,958.0
1982-04-25,998.0
1982-04-26,1209.0
1982-04-27,1359.0
1982-04-28,1714.0
1982-04-29,2308.0
1982-04-30,1866.0
1982-05-01,2226.0
1982-05-02,2835.0
1982-05-03,3135.0
1982-05-04,4069.0
1982-05-05,3783.0
1982-05-06,3100.0
1982-05-07,2464.0
1982-05-08,1942.0
1982-05-09,2052.0
1982-05-10,2040.0
1982-05-11,1829.0
1982-05-12,1845.0
1982-05-13,2438.0
1982-05-14,2016.0
1982-05-15,2072.0
1982-05-16,1564.0
1982-05-17,1197.0
1982-05-18,1010.0
1982-05-19,1209.0
1982-05-20,1359.0
1982-05-21,1201.0
1982-05-22,2133.0
1982-05-23,2290.0
1982-05-24,2425.0
1982-05-25,1693.0
1982-05-26,1742.0
1982-05-27,2246.0
1982-05-28,2355.0
1982-05-29,2387.0
1982-05-30,2294.0
1982-05-31,1862.0
1982-06-01,1791.0
1982-06-02,1738.0
1982-06-03,1642.0
1982-06-04,1649.0
1982-06-05,1743.0
1982-06-06,1706.0
1982-06-07,1469.0
1982-06-08,1364.0
1982-06-09,1422.0
1982-06-10,1440.0
1982-06-11,1267.0
1982-06-12,1273.0
1982-06-13,1318.0
1982-06-14,1265.0
1982-06-15,1125.0
1982-06-16,985.0
1982-06-17,986.0
1982-06-18,1287.0
1982-06-19,1585.0
1982-06-20,1289.0
1982-06-21,1112.0
1982-06-22,1065.0
1982-06-23,969.0
1982-06-24,876.0
1982-06-25,864.0
1982-06-26,711.0
1982-06-27,760.0
1982-06-28,740.0
1982-06-29,496.0
1982-06-30,349.0
1982-07-01,485.0
1982-07-02,475.0
1982-07-03,182.0
1982-07-04,225.0
1982-07-05,172.0
1982-07-06,69.0
1982-07-07,71.0
1982-07-08,127.0
1982-07-09,163.0
1982-07-10,160.0
1982-07-11,130.0
1982-07-12,136.0
1982-07-13,41.0
1982-07-14,38.0
1982-07-15,109.0
1982-07-16,212.0
1982-07-17,177.0
1982-07-18,224.0
1982-07-19,262.0
1982-07-20,147.0
1982-07-21,197.0
1982-07-22,151.0
1982-07-23,153.0
1982-07-24,180.0
1982-07-25,255.0
1982-07-26,295.0
1982-07-27,317.0
1982-07-28,620.0
1982-07-29,287.0
1982-07-30,305.0
1982-07-31,174.0
1982-08-01,157.0
1982-08-02,246.0
1982-08-03,439.0
1982-08-04,369.0
1982-08-05,182.0
1982-08-06,78.0
1982-08-07,115.0
1982-08-08,205.0
1982-08-09,277.0
1982-08-10,276.0
1982-08-11,282.0
1982-08-12,317.0
1982-08-13,303.0
1982-08-14,800.0
1982-08-15,593.0
1982-08-16,472.0
1982-08-17,423.0
1982-08-18,364.0
1982-08-19,359.0
1982-08-20,262.0
1982-08-21,113.0
1982-08-22,150.0
1982-08-23,380.0
1982-08-24,281.0
1982-08-25,746.0
1982-08-26,654.0
1982-08-27,466.0
1982-08-28,512.0
1982-08-29,436.0
1982-08-30,354.0
1982-08-31,327.0
1982-09-01,293.0
1982-09-02,263.0
1982-09-03,246.0
1982-09-04,249.0
1982-09-05,421.0
1982-09-06,566.0
1982-09-07,468.0
1982-09-08,507.0
1982-09-09,507.0
1982-09-10,452.0
1982-09-11,540.0
1982-09-12,817.0
1982-09-13,1116.0
1982-09-14,1269.0
1982-09-15,979.0
1982-09-16,867.0
1982-09-17,755.0
1982-09-18,781.0
1982-09-19,854.0
1982-09-20,935.0
1982-09-21,910.0
1982-09-22,752.0
1982-09-23,692.0
1982-09-24,635.0
1982-09-25,620.0
1982-09-26,581.0
1982-09-27,648.0
1982-09-28,1006.0
1982-09-29,830.0
1982-09-30,777.0
1982-10-01,809.0
1982-10-02,788.0
1982-10-03,738.0
1982-10-04,671.0
1982-10-05,619.0
1982-10-06,535.0
1982-10-07,513.0
1982-10-08,575.0
1982-10-09,599.0
1982-10-10,525.0
1982-10-11,619.0
1982-10-12,495.0
1982-10-13,592.0
1982-10-14,465.0
1982-10-15,466.0
1982-10-16,571.0
1982-10-17,544.0
1982-10-18,553.0
1982-10-19,358.0
1982-10-20,429.0
1982-10-21,451.0
1982-10-22,457.0
1982-10-23,472.0
1982-10-24,471.0
1982-10-25,444.0
1982-10-26,354.0
1982-10-27,1278.0
1982-10-28,940.0
1982-10-29,735.0
1982-10-30,690.0
1982-10-31,690.0
1982-11-01,771.0
1982-11-02,692.0
1982-11-03,733.0
1982-11-04,599.0
1982-11-05,674.0
1982-11-06,608.0
1982-11-07,626.0
1982-11-08,638.0
1982-11-09,761.0
1982-11-10,867.0
1982-11-11,932.0
1982-11-12,862.0
1982-11-13,731.0
1982-11-14,664.0
1982-11-15,600.0
1982-11-16,590.0
1982-11-17,620.0
1982-11-18,650.0
1982-11-19,660.0
1982-11-20,677.0
1982-11-21,642.0
1982-11-22,638.0
1982-11-23,631.0
1982-11-24,572.0
1982-11-25,593.0
1982-11-26,583.0
1982-11-27,512.0
1982-11-28,535.0
1982-11-29,547.0
1982-11-30,615.0
1982-12-01,626.0
1982-12-02,609.0
1982-12-03,536.0
1982-12-04,501.0
1982-12-05,519.0
1982-12-06,529.0
1982-12-07,562.0
1982-12-08,524.0
1982-12-09,510.0
1982-12-10,533.0
1982-12-11,518.0
1982-12-12,499.0
1982-12-13,481.0
1982-12-14,487.0
1982-12-15,499.0
1982-12-16,468.0
1982-12-17,516.0
1982-12-18,508.0
1982-12-19,437.0
1982-12-20,412.0
1982-12-21,514.0
1982-12-22,543.0
1982-12-23,543.0
1982-12-24,494.0
1982-12-25,368.0
1982-12-26,346.0
1982-12-27,347.0
1982-12-28,432.0
1982-12-29,414.0
1982-12-30,385.0
1982-12-31,323.0
1983-01-01,409.0
1983-01-02,412.0
1983-01-03,403.0
1983-01-04,366.0
1983-01-05,373.0
1983-01-06,369.0
1983-01-07,394.0
1983-01-08,359.0
1983-01-09,383.0
1983-01-10,294.0
1983-01-11,347.0
1983-01-12,317.0
1983-01-13,320.0
1983-01-14,296.0
1983-01-15,296.0
1983-01-16,306.0
1983-01-17,386.0
1983-01-18,396.0
1983-01-19,414.0
1983-01-20,366.0
1983-01-21,376.0
1983-01-22,368.0
1983-01-23,368.0
1983-01-24,368.0
1983-01-25,358.0
1983-01-26,368.0
1983-01-27,358.0
1983-01-28,388.0
1983-01-29,408.0
1983-01-30,378.0
1983-01-31,350.0
1983-02-01,356.0
1983-02-02,322.0
1983-02-03,281.0
1983-02-04,289.0
1983-02-05,351.0
1983-02-06,341.0
1983-02-07,347.0
1983-02-08,335.0
1983-02-09,370.0
1983-02-10,288.0
1983-02-11,348.0
1983-02-12,366.0
1983-02-13,337.0
1983-02-14,359.0
1983-02-15,341.0
1983-02-16,371.0
1983-02-17,359.0
1983-02-18,349.0
1983-02-19,370.0
1983-02-20,363.0
1983-02-21,341.0
1983-02-22,341.0
1983-02-23,361.0
1983-02-24,362.0
1983-02-25,365.0
1983-02-26,392.0
1983-02-27,396.0
1983-02-28,357.0
1983-03-01,410.0
1983-03-02,437.0
1983-03-03,422.0
1983-03-04,417.0
1983-03-05,456.0
1983-03-06,435.0
1983-03-07,405.0
1983-03-08,377.0
1983-03-09,389.0
1983-03-10,305.0
1983-03-11,375.0
1983-03-12,458.0
1983-03-13,487.0
1983-03-14,571.0
1983-03-15,764.0
1983-03-16,631.0
1983-03-17,481.0
1983-03-18,448.0
1983-03-19,668.0
1983-03-20,605.0
1983-03-21,508.0
1983-03-22,534.0
1983-03-23,595.0
1983-03-24,624.0
1983-03-25,656.0
1983-03-26,593.0
1983-03-27,603.0
1983-03-28,567.0
1983-03-29,658.0
1983-03-30,627.0
1983-03-31,617.0
1983-04-01,729.0
1983-04-02,639.0
1983-04-03,605.0
1983-04-04,597.0
1983-04-05,571.0
1983-04-06,529.0
1983-04-07,549.0
1983-04-08,536.0
1983-04-09,520.0
1983-04-10,571.0
1983-04-11,535.0
1983-04-12,612.0
1983-04-13,552.0
1983-04-14,612.0
1983-04-15,543.0
1983-04-16,530.0
1983-04-17,568.0
1983-04-18,645.0
1983-04-19,888.0
1983-04-20,999.0
1983-04-21,1057.0
1983-04-22,1058.0
1983-04-23,1036.0
1983-04-24,1474.0
1983-04-25,2835.0
1983-04-26,2771.0
1983-04-27,2320.0
1983-04-28,1894.0
1983-04-29,2026.0
1983-04-30,2823.0
1983-05-01,2309.0
1983-05-02,1780.0
1983-05-03,1573.0
1983-05-04,1658.0
1983-05-05,2218.0
1983-05-06,2369.0
1983-05-07,1981.0
1983-05-08,2468.0
1983-05-09,4020.0
1983-05-10,4547.0
1983-05-11,5210.0
1983-05-12,3230.0
1983-05-13,3119.0
1983-05-14,2558.0
1983-05-15,2566.0
1983-05-16,2447.0
1983-05-17,2976.0
1983-05-18,2584.0
1983-05-19,2395.0
1983-05-20,2529.0
1983-05-21,2432.0
1983-05-22,3401.0
1983-05-23,4385.0
1983-05-24,4996.0
1983-05-25,5760.0
1983-05-26,6060.0
1983-05-27,6270.0
1983-05-28,6510.0
1983-05-29,6440.0
1983-05-30,6670.0
1983-05-31,8020.0
1983-06-01,6600.0
1983-06-02,7010.0
1983-06-03,5110.0
1983-06-04,5030.0
1983-06-05,5060.0
1983-06-06,4540.0
1983-06-07,4260.0
1983-06-08,4382.0
1983-06-09,4553.0
1983-06-10,4360.0
1983-06-11,4190.0
1983-06-12,5080.0
1983-06-13,4450.0
1983-06-14,2980.0
1983-06-15,2630.0
1983-06-16,2890.0
1983-06-17,3170.0
1983-06-18,3830.0
1983-06-19,4500.0
1983-06-20,4320.0
1983-06-21,4120.0
1983-06-22,3750.0
1983-06-23,3900.0
1983-06-24,3460.0
1983-06-25,4070.0
1983-06-26,4780.0
1983-06-27,3440.0
1983-06-28,3240.0
1983-06-29,2730.0
1983-06-30,2760.0
1983-07-01,2670.0
1983-07-02,1943.0
1983-07-03,2729.0
1983-07-04,2167.0
1983-07-05,1870.0
1983-07-06,680.0
1983-07-07,1412.0
1983-07-08,2020.0
1983-07-09,1380.0
1983-07-10,1000.0
1983-07-11,1250.0
1983-07-12,610.0
1983-07-13,530.0
1983-07-14,682.0
1983-07-15,243.0
1983-07-16,147.0
1983-07-17,722.0
1983-07-18,576.0
1983-07-19,863.0
1983-07-20,296.0
1983-07-21,1131.0
1983-07-22,1044.0
1983-07-23,731.0
1983-07-24,632.0
1983-07-25,672.0
1983-07-26,1185.0
1983-07-27,1693.0
1983-07-28,680.0
1983-07-29,334.0
1983-07-30,63.0
1983-07-31,381.0
1983-08-01,333.0
1983-08-02,253.0
1983-08-03,312.0
1983-08-04,324.0
1983-08-05,458.0
1983-08-06,234.0
1983-08-07,306.0
1983-08-08,304.0
1983-08-09,425.0
1983-08-10,77.0
1983-08-11,297.0
1983-08-12,146.0
1983-08-13,933.0
1983-08-14,507.0
1983-08-15,355.0
1983-08-16,298.0
1983-08-17,202.0
1983-08-18,342.0
1983-08-19,419.0
1983-08-20,423.0
1983-08-21,423.0
1983-08-22,378.0
1983-08-23,311.0
1983-08-24,296.0
1983-08-25,477.0
1983-08-26,407.0
1983-08-27,263.0
1983-08-28,364.0
1983-08-29,362.0
1983-08-30,639.0
1983-08-31,36.0
1983-09-01,260.0
1983-09-02,420.0
1983-09-03,304.0
1983-09-04,327.0
1983-09-05,398.0
1983-09-06,357.0
1983-09-07,352.0
1983-09-08,346.0
1983-09-09,347.0
1983-09-10,389.0
1983-09-11,431.0
1983-09-12,421.0
1983-09-13,401.0
1983-09-14,326.0
1983-09-15,348.0
1983-09-16,347.0
1983-09-17,382.0
1983-09-18,376.0
1983-09-19,406.0
1983-09-20,400.0
1983-09-21,479.0
1983-09-22,529.0
1983-09-23,551.0
1983-09-24,532.0
1983-09-25,549.0
1983-09-26,535.0
1983-09-27,527.0
1983-09-28,403.0
1983-09-29,469.0
1983-09-30,526.0
1983-10-01,652.0
1983-10-02,617.0
1983-10-03,620.0
1983-10-04,562.0
1983-10-05,511.0
1983-10-06,497.0
1983-10-07,544.0
1983-10-08,278.0
1983-10-09,534.0
1983-10-10,494.0
1983-10-11,477.0
1983-10-12,440.0
1983-10-13,483.0
1983-10-14,437.0
1983-10-15,502.0
1983-10-16,599.0
1983-10-17,620.0
1983-10-18,593.0
1983-10-19,607.0
1983-10-20,607.0
1983-10-21,602.0
1983-10-22,593.0
1983-10-23,590.0
1983-10-24,583.0
1983-10-25,583.0
1983-10-26,577.0
1983-10-27,593.0
1983-10-28,592.0
1983-10-29,567.0
1983-10-30,516.0
1983-10-31,621.0
1983-11-01,398.0
1983-11-02,505.0
1983-11-03,465.0
1983-11-04,490.0
1983-11-05,523.0
1983-11-06,543.0
1983-11-07,546.0
1983-11-08,773.0
1983-11-09,945.0
1983-11-10,744.0
1983-11-11,616.0
1983-11-12,627.0
1983-11-13,617.0
1983-11-14,609.0
1983-11-15,604.0
1983-11-16,606.0
1983-11-17,564.0
1983-11-18,735.0
1983-11-19,744.0
1983-11-20,594.0
1983-11-21,625.0
1983-11-22,600.0
1983-11-23,529.0
1983-11-24,540.0
1983-11-25,572.0
1983-11-26,643.0
1983-11-27,495.0
1983-11-28,524.0
1983-11-29,578.0
1983-11-30,583.0
1983-12-01,527.0
1983-12-02,562.0
1983-12-03,579.0
1983-12-04,576.0
1983-12-05,519.0
1983-12-06,418.0
1983-12-07,459.0
1983-12-08,561.0
1983-12-09,518.0
1983-12-10,536.0
1983-12-11,498.0
1983-12-12,509.0
1983-12-13,488.0
1983-12-14,510.0
1983-12-15,536.0
1983-12-16,519.0
1983-12-17,516.0
1983-12-18,524.0
1983-12-19,524.0
1983-12-20,525.0
1983-12-21,428.0
1983-12-22,477.0
1983-12-23,525.0
1983-12-24,522.0
1983-12-25,578.0
1983-12-26,672.0
1983-12-27,674.0
1983-12-28,644.0
1983-12-29,437.0
1983-12-30,531.0
1983-12-31,642.0
1984-01-01,705.0
1984-01-02,641.0
1984-01-03,554.0
1984-01-04,678.0
1984-01-05,810.0
1984-01-06,842.0
1984-01-07,794.0
1984-01-08,774.0
1984-01-09,788.0
1984-01-10,775.0
1984-01-11,685.0
1984-01-12,691.0
1984-01-13,684.0
1984-01-14,724.0
1984-01-15,557.0
1984-01-16,361.0
1984-01-17,355.0
1984-01-18,343.0
1984-01-19,263.0
1984-01-20,291.0
1984-01-21,301.0
1984-01-22,332.0
1984-01-23,432.0
1984-01-24,461.0
1984-01-25,356.0
1984-01-26,405.0
1984-01-27,364.0
1984-01-28,339.0
1984-01-29,353.0
1984-01-30,336.0
1984-01-31,340.0
1984-02-01,328.0
1984-02-02,336.0
1984-02-03,336.0
1984-02-04,336.0
1984-02-05,338.0
1984-02-06,327.0
1984-02-07,376.0
1984-02-08,315.0
1984-02-09,282.0
1984-02-10,322.0
1984-02-11,336.0
1984-02-12,281.0
1984-02-13,295.0
1984-02-14,453.0
1984-02-15,481.0
1984-02-16,313.0
1984-02-17,373.0
1984-02-18,313.0
1984-02-19,274.0
1984-02-20,254.0
1984-02-21,236.0
1984-02-22,286.0
1984-02-23,269.0
1984-02-24,252.0
1984-02-25,290.0
1984-02-26,262.0
1984-02-27,253.0
1984-02-28,246.0
1984-02-29,265.0
1984-03-01,298.0
1984-03-02,379.0
1984-03-03,341.0
1984-03-04,313.0
1984-03-05,226.0
1984-03-06,161.0
1984-03-07,126.0
1984-03-08,188.0
1984-03-09,252.0
1984-03-10,228.0
1984-03-11,294.0
1984-03-12,313.0
1984-03-13,240.0
1984-03-14,240.0
1984-03-15,311.0
1984-03-16,301.0
1984-03-17,264.0
1984-03-18,227.0
1984-03-19,167.0
1984-03-20,126.0
1984-03-21,159.0
1984-03-22,308.0
1984-03-23,239.0
1984-03-24,212.0
1984-03-25,294.0
1984-03-26,282.0
1984-03-27,223.0
1984-03-28,196.0
1984-03-29,137.0
1984-03-30,104.0
1984-03-31,200.0
1984-04-01,177.0
1984-04-02,210.0
1984-04-03,200.0
1984-04-04,197.0
1984-04-05,206.0
1984-04-06,214.0
1984-04-07,140.0
1984-04-08,78.0
1984-04-09,261.0
1984-04-10,-285.0
1984-04-11,100.0
1984-04-12,201.0
1984-04-13,208.0
1984-04-14,466.0
1984-04-15,801.0
1984-04-16,988.0
1984-04-17,1476.0
1984-04-18,1960.0
1984-04-19,2170.0
1984-04-20,750.0
1984-04-21,240.0
1984-04-22,664.0
1984-04-23,958.0
1984-04-24,1697.0
1984-04-25,2060.0
1984-04-26,730.0
1984-04-27,460.0
1984-04-28,534.0
1984-04-29,745.0
1984-04-30,630.0
1984-05-01,671.0
1984-05-02,871.0
1984-05-03,1030.0
1984-05-04,960.0
1984-05-05,1280.0
1984-05-06,1590.0
1984-05-07,810.0
1984-05-08,700.0
1984-05-09,1610.0
1984-05-10,2370.0
1984-05-11,3430.0
1984-05-12,4440.0
1984-05-13,4840.0
1984-05-14,4880.0
1984-05-15,6160.0
1984-05-16,5370.0
1984-05-17,5280.0
1984-05-18,5160.0
1984-05-19,3470.0
1984-05-20,4500.0
1984-05-21,4970.0
1984-05-22,3910.0
1984-05-23,4250.0
1984-05-24,4030.0
1984-05-25,4660.0
1984-05-26,4580.0
1984-05-27,3770.0
1984-05-28,2110.0
1984-05-29,2250.0
1984-05-30,2340.0
1984-05-31,2310.0
1984-06-01,2800.0
1984-06-02,2920.0
1984-06-03,1180.0
1984-06-04,1570.0
1984-06-05,910.0
1984-06-06,4110.0
1984-06-07,4690.0
1984-06-08,8270.0
1984-06-09,3690.0
1984-06-10,3250.0
1984-06-11,2590.0
1984-06-12,2420.0
1984-06-13,2460.0
1984-06-14,2330.0
1984-06-15,2150.0
1984-06-16,1730.0
1984-06-17,1350.0
1984-06-18,300.0
1984-06-19,290.0
1984-06-20,790.0
1984-06-21,660.0
1984-06-22,-200.0
1984-06-23,-180.0
1984-06-24,-730.0
1984-06-25,-640.0
1984-06-26,-640.0
1984-06-27,-480.0
1984-06-28,-940.0
1984-06-29,-850.0
1984-06-30,-820.0
1984-07-01,-620.0
1984-07-02,-1390.0
1984-07-03,-1010.0
1984-07-04,-600.0
1984-07-05,-590.0
1984-07-06,-1010.0
1984-07-07,-1210.0
1984-07-08,-526.0
1984-07-09,-348.0
1984-07-10,77.0
1984-07-11,119.0
1984-07-12,-434.0
1984-07-13,-217.0
1984-07-14,880.0
1984-07-15,293.0
1984-07-16,196.0
1984-07-17,261.0
1984-07-18,128.0
1984-07-19,-7.0
1984-07-20,78.0
1984-07-21,129.0
1984-07-22,33.0
1984-07-23,247.0
1984-07-24,90.0
1984-07-25,-7.0
1984-07-26,508.0
1984-07-27,246.0
1984-07-28,433.0
1984-07-29,248.0
1984-07-30,191.0